FW4683 Weather Reports


time (UTC)temp
C
wind
direction
speed
KPH
gust
KPH
rain 1hr
cm
rain 24hr
cm
rain mn
cm
humidity
%
barometer
mb
20260906052517 22 98 0.0 4.8 0.00 0.00 0.00 93 1011.8
20260906052017 22 98 0.0 6.4 0.00 0.00 0.00 93 1012.0
20260906051519 22 98 1.6 6.4 0.00 0.00 0.00 93 1012.0
20260906051015 22 98 1.6 4.8 0.00 0.00 0.00 92 1012.1
20260906050515 22 98 1.6 4.8 0.00 0.00 0.00 92 1012.0
20260906050016 22 98 0.0 0.0 0.00 0.00 0.00 91 1012.1
20260906045514 22 98 0.0 0.0 0.00 0.00 0.00 91 1012.1
20260906045015 22 98 0.0 1.6 0.00 0.00 0.00 91 1012.0
20260906044515 22 98 0.0 1.6 0.00 0.00 0.00 91 1011.9
20260906044015 22 98 0.0 3.2 0.00 0.00 0.00 91 1011.9
20260906043017 22 98 0.0 3.2 0.00 0.00 0.00 92 1011.8
20260906042516 23 98 0.0 0.0 0.00 0.00 0.00 92 1011.7
20260906042015 22 98 0.0 0.0 0.00 0.00 0.00 92 1011.7
20260906041525 22 98 0.0 4.8 0.00 0.00 0.00 93 1011.6
20260906041015 22 98 0.0 4.8 0.00 0.00 0.00 92 1011.7
20260906040515 22 98 1.6 4.8 0.00 0.00 0.00 92 1012.0
20260906040015 23 98 0.0 0.0 0.00 0.00 0.00 92 1011.9
20260906035518 23 98 0.0 1.6 0.00 0.00 0.00 92 1012.0
20260906035015 23 98 0.0 4.8 0.00 0.00 0.00 92 1012.2
20260906034516 23 98 1.6 4.8 0.00 0.00 0.00 92 1012.3
20260906034018 23 98 0.0 1.6 0.00 0.00 0.00 91 1012.2
20260906033015 23 98 0.0 6.4 0.00 0.00 0.00 92 1012.4
20260906032515 23 98 0.0 3.2 0.00 0.00 0.00 91 1012.5
20260906032015 23 98 0.0 6.4 0.00 0.00 0.00 91 1012.5
20260906031514 23 98 0.0 11.3 0.00 0.00 0.00 91 1012.4
20260906031014 23 98 3.2 11.3 0.00 0.00 0.00 90 1012.4
20260906030514 23 98 0.0 1.6 0.00 0.00 0.00 88 1012.5
20260906030014 23 98 0.0 1.6 0.00 0.00 0.00 89 1012.3
20260906025517 23 98 0.0 0.0 0.00 0.00 0.00 89 1012.1
20260906025014 24 98 0.0 0.0 0.00 0.00 0.00 89 1012.0
20260906024513 24 98 0.0 0.0 0.00 0.00 0.00 89 1012.2
20260906024013 24 98 0.0 0.0 0.00 0.00 0.00 89 1012.1
20260906023014 23 98 0.0 0.0 0.00 0.00 0.00 89 1011.9
20260906022512 24 98 0.0 0.0 0.00 0.00 0.00 89 1011.8
20260906022013 24 98 0.0 0.0 0.00 0.00 0.00 90 1011.8
20260906021513 24 98 0.0 1.6 0.00 0.00 0.00 90 1011.7
20260906021012 24 98 0.0 6.4 0.00 0.00 0.00 90 1011.7
20260906020512 23 98 1.6 6.4 0.00 0.00 0.00 90 1011.6
20260906020011 23 98 0.0 6.4 0.00 0.00 0.00 91 1011.6
20260906015515 23 98 1.6 6.4 0.00 0.00 0.00 91 1011.6
20260906015011 24 98 3.2 6.4 0.00 0.00 0.00 90 1011.7
20260906014525 24 98 0.0 4.8 0.00 0.00 0.00 90 1011.6
20260906014012 24 98 1.6 4.8 0.00 0.00 0.00 90 1011.6
20260906013019 24 98 0.0 4.8 0.00 0.00 0.00 89 1011.7
20260906012511 25 98 0.0 4.8 0.00 0.00 0.00 87 1011.5
20260906012011 25 98 0.0 1.6 0.00 0.00 0.00 88 1011.4
20260906011511 25 98 0.0 1.6 0.00 0.00 0.00 89 1011.2
20260906011010 25 98 0.0 0.0 0.00 0.00 0.00 89 1011.3
20260906010512 25 98 0.0 1.6 0.00 0.00 0.00 88 1011.1
20260906010033 25 98 0.0 1.6 0.00 0.00 0.00 87 1011.2
20260906005510 25 98 0.0 0.0 0.00 0.00 0.00 87 1011.2
20260906005014 25 98 0.0 1.6 0.00 0.00 0.00 86 1011.1
20260906004511 25 98 0.0 1.6 0.00 0.00 0.00 86 1011.1
20260906004010 26 98 0.0 1.6 0.00 0.00 0.00 86 1011.0
20260906003010 25 98 0.0 4.8 0.00 0.00 0.00 86 1010.8
20260906002510 26 98 0.0 4.8 0.00 0.00 0.00 85 1010.8
20260906002010 26 98 0.0 1.6 0.00 0.00 0.00 84 1010.7
20260906001510 26 98 0.0 1.6 0.00 0.00 0.00 84 1010.5
20260906001013 26 98 0.0 1.6 0.00 0.00 0.00 85 1010.6
20260906000510 26 98 0.0 6.4 0.00 0.00 0.00 83 1010.4
20260906000010 26 98 1.6 6.4 0.00 0.00 0.00 82 1010.5
20260905235509 26 98 0.0 4.8 0.00 0.00 0.00 81 1010.5
20260905235013 27 98 0.0 4.8 0.00 0.00 0.00 81 1010.4
20260905234510 27 98 0.0 3.2 0.00 0.00 0.00 80 1010.4
20260905234013 27 98 0.0 1.6 0.00 0.00 0.00 78 1010.4
20260905233012 28 98 0.0 1.6 0.00 0.00 0.00 76 1010.3
20260905232510 28 98 0.0 1.6 0.00 0.00 0.00 74 1010.3
20260905232009 28 98 0.0 1.6 0.00 0.00 0.00 73 1010.3
20260905231509 28 98 0.0 1.6 0.00 0.00 0.00 71 1010.2
20260905231011 29 98 0.0 1.6 0.00 0.00 0.00 70 1010.2
20260905230508 30 98 0.0 1.6 0.00 0.00 0.00 70 1010.2
20260905230009 30 98 0.0 1.6 0.00 0.00 0.00 69 1010.2
20260905225508 30 98 0.0 1.6 0.00 0.00 0.00 69 1010.1
20260905225008 30 98 0.0 1.6 0.00 0.00 0.00 70 1010.1
20260905224508 30 98 0.0 1.6 0.00 0.00 0.00 70 1010.1
20260905224012 29 98 1.6 4.8 0.00 0.00 0.00 70 1010.0
20260905223017 29 98 1.6 4.8 0.00 0.00 0.00 70 1010.1
20260905222508 29 98 0.0 6.4 0.00 0.00 0.00 70 1010.1
20260905222007 28 98 0.0 6.4 0.00 0.00 0.00 71 1010.1
20260905221506 28 98 0.0 6.4 0.00 0.00 0.00 71 1010.1
20260905221007 28 98 3.2 9.7 0.00 0.00 0.00 71 1010.2
20260905220506 28 98 3.2 9.7 0.00 0.00 0.00 70 1010.1
20260905220006 28 98 3.2 9.7 0.00 0.00 0.00 71 1010.1
20260905215509 28 98 3.2 9.7 0.00 0.00 0.00 71 1010.2
20260905215004 28 98 3.2 11.3 0.00 0.00 0.00 71 1010.3
20260905214505 28 98 1.6 9.7 0.00 0.00 0.00 70 1010.2
20260905214005 28 98 1.6 11.3 0.00 0.00 0.00 73 1010.2
20260905213003 28 98 1.6 11.3 0.00 0.00 0.00 73 1010.3
20260905212505 28 98 6.4 11.3 0.00 0.00 0.00 72 1010.3
20260905212005 28 98 1.6 9.7 0.00 0.00 0.00 74 1010.5
20260905211511 27 98 3.2 6.4 0.00 0.00 0.00 74 1010.5
20260905211003 27 98 1.6 11.3 0.00 0.00 0.00 74 1010.5
20260905210503 27 98 3.2 17.7 0.00 0.00 0.00 76 1010.5
20260905210002 27 98 3.2 17.7 0.00 0.00 0.00 76 1010.5
20260905205502 26 98 6.4 14.5 0.00 0.00 0.00 76 1010.6
20260905205003 26 98 6.4 12.9 0.00 0.00 0.00 76 1010.7
20260905204502 26 98 6.4 12.9 0.00 0.00 0.00 77 1010.7
20260905204002 25 98 3.2 11.3 0.00 0.00 0.00 79 1011.0
20260905203003 25 98 1.6 14.5 0.00 0.00 0.00 80 1011.0
20260905202506 25 98 6.4 17.7 0.00 0.00 0.00 80 1011.2
20260905202002 25 98 9.7 17.7 0.00 0.00 0.00 79 1011.1
20260905201504 25 98 8.0 12.9 0.00 0.00 0.00 81 1011.1
20260905201002 25 98 1.6 6.4 0.00 0.00 0.00 81 1011.4
20260905200502 25 98 3.2 9.7 0.00 0.00 0.00 81 1011.5
20260905200002 25 98 3.2 17.7 0.00 0.00 0.00 81 1011.4
20260905195501 25 98 6.4 17.7 0.00 0.00 0.00 80 1011.4
20260905195001 25 98 1.6 11.3 0.00 0.00 0.00 80 1011.3
20260905194502 25 98 1.6 9.7 0.00 0.00 0.00 79 1011.3
20260905194002 25 98 1.6 9.7 0.00 0.00 0.00 81 1011.4
20260905193100 24 98 4.8 14.5 0.00 0.00 0.00 81 1011.7
20260905192601 24 98 8.0 14.5 0.00 0.00 0.00 81 1011.7
20260905192101 24 98 4.8 11.3 0.00 0.00 0.00 81 1011.6
20260905191600 24 98 4.8 11.3 0.00 0.00 0.00 82 1011.5
20260905191100 24 98 6.4 11.3 0.00 0.00 0.00 81 1011.5
20260905190600 24 98 3.2 14.5 0.00 0.00 0.00 81 1011.7
20260905185600 24 98 3.2 9.7 0.00 0.00 0.00 81 1011.5
20260905185103 24 98 1.6 6.4 0.00 0.00 0.00 80 1011.5
20260905184611 24 98 1.6 9.7 0.00 0.00 0.00 80 1011.9
20260905184100 24 98 0.0 16.1 0.00 0.00 0.00 80 1011.3
20260905183002 25 98 8.0 12.9 0.00 0.00 0.00 78 1011.5
20260905182601 25 98 1.6 17.7 0.00 0.00 0.00 76 1011.7
20260905182500 25 98 0.0 17.7 0.00 0.00 0.00 74 1011.5
20260905182102 26 98 6.4 17.7 0.00 0.00 0.00 72 1011.7
20260905181602 27 98 4.8 11.3 0.00 0.00 0.00 67 1010.9
20260905181059 28 98 0.0 20.9 0.00 0.00 0.00 67 1010.3
20260905180600 28 98 8.0 22.5 0.00 0.00 0.00 65 1011.2
20260905180059 28 98 12.9 51.5 0.00 0.00 0.00 63 1011.3
20260905175557 30 98 14.5 59.5 0.00 0.00 0.00 62 1011.7
20260905175057 32 96 17.7 29.0 0.00 0.00 0.00 61 1011.9
20260905174555 32 96 12.9 24.1 0.00 0.00 0.00 61 1012.2
20260905174059 33 96 8.0 20.9 0.00 0.00 0.00 59 1011.7
20260905173054 33 96 3.2 22.5 0.00 0.00 0.00 58 1011.9
20260905172555 33 96 9.7 22.5 0.00 0.00 0.00 57 1011.9
20260905172052 33 96 6.4 24.1 0.00 0.00 0.00 59 1011.9
20260905171553 33 96 8.0 27.4 0.00 0.00 0.00 58 1012.1
20260905171052 33 96 16.1 29.0 0.00 0.00 0.00 57 1012.1
20260905170551 33 96 16.1 29.0 0.00 0.00 0.00 58 1012.0
20260905170104 32 96 9.7 27.4 0.00 0.00 0.00 60 1012.0
20260905165554 32 96 9.7 29.0 0.00 0.00 0.00 60 1012.1
20260905165050 32 96 9.7 29.0 0.00 0.00 0.00 59 1012.2
20260905164559 32 95 6.4 19.3 0.00 0.00 0.00 61 1012.2
20260905164049 33 95 11.3 24.1 0.00 0.00 0.00 59 1012.3
20260905163049 32 95 4.8 19.3 0.00 0.00 0.00 61 1012.4
20260905162550 32 95 1.6 24.1 0.00 0.00 0.00 61 1012.4
20260905162048 32 95 8.0 17.7 0.00 0.00 0.00 61 1012.6
20260905161549 33 96 6.4 20.9 0.00 0.00 0.00 61 1012.7
20260905161050 33 95 6.4 19.3 0.00 0.00 0.00 62 1012.8
20260905160547 32 95 1.6 6.4 0.00 0.00 0.00 63 1012.8
20260905160047 32 96 0.0 9.7 0.00 0.00 0.00 64 1012.9
20260905155546 32 95 0.0 9.7 0.00 0.00 0.00 67 1013.0
20260905155046 32 96 1.6 9.7 0.00 0.00 0.00 65 1013.0
20260905154546 32 96 1.6 9.7 0.00 0.00 0.00 65 1013.1
20260905154045 32 95 0.0 6.4 0.00 0.00 0.00 65 1013.0
20260905153044 32 95 0.0 3.2 0.00 0.00 0.00 66 1012.9
20260905152543 31 95 0.0 12.9 0.00 0.00 0.00 67 1012.8
20260905152046 31 95 3.2 11.3 0.00 0.00 0.00 67 1012.9
20260905151542 31 95 0.0 4.8 0.00 0.00 0.00 68 1012.8
20260905151041 31 95 0.0 6.4 0.00 0.00 0.00 68 1012.7
20260905150540 31 95 1.6 6.4 0.00 0.00 0.00 68 1012.7
20260905150039 30 95 0.0 4.8 0.00 0.00 0.00 69 1012.6
20260905145538 30 95 0.0 6.4 0.00 0.00 0.00 70 1012.7
20260905145037 30 95 1.6 6.4 0.00 0.00 0.00 71 1012.8
20260905144537 29 95 0.0 11.3 0.00 0.00 0.00 72 1012.7
20260905144035 28 96 4.8 11.3 0.00 0.00 0.00 73 1012.8
20260905143036 28 95 1.6 9.7 0.00 0.00 0.00 76 1012.9
20260905142538 28 95 3.2 6.4 0.00 0.00 0.00 76 1012.9
20260905142033 28 96 1.6 4.8 0.00 0.00 0.00 76 1013.0
20260905141532 28 95 1.6 6.4 0.00 0.00 0.00 77 1013.1
20260905141033 28 95 1.6 6.4 0.00 0.00 0.00 77 1013.0
20260905140530 27 95 0.0 4.8 0.00 0.00 0.00 79 1013.1
20260905140029 27 95 1.6 9.7 0.00 0.00 0.00 79 1013.0
20260905135529 27 95 3.2 11.3 0.00 0.00 0.00 80 1013.0
20260905135027 26 96 4.8 11.3 0.00 0.00 0.00 81 1013.0
20260905134530 26 96 3.2 11.3 0.00 0.00 0.00 81 1013.2
20260905134026 26 95 3.2 11.3 0.00 0.00 0.00 81 1013.0
20260905133024 26 96 1.6 11.3 0.00 0.00 0.00 83 1013.1
20260905132524 26 96 3.2 9.7 0.00 0.00 0.00 83 1013.2
20260905132023 25 96 3.2 9.7 0.00 0.00 0.00 83 1013.2
20260905131520 25 96 3.2 11.3 0.00 0.00 0.00 84 1013.2
20260905131024 25 95 4.8 11.3 0.00 0.00 0.00 84 1013.4
20260905130520 25 95 1.6 9.7 0.00 0.00 0.00 85 1013.5
20260905130029 25 96 0.0 9.7 0.00 0.00 0.00 85 1013.5
20260905125519 25 96 0.0 9.7 0.00 0.00 0.00 86 1013.6
20260905125019 24 96 0.0 9.7 0.00 0.00 0.00 87 1013.5
20260905124523 24 96 1.6 9.7 0.00 0.00 0.00 87 1013.6
20260905124018 24 96 0.0 3.2 0.00 0.00 0.00 87 1013.5
20260905123018 23 96 1.6 6.4 0.00 0.00 0.00 88 1013.4
20260905122519 23 96 0.0 6.4 0.00 0.00 0.00 89 1013.4
20260905122019 23 96 0.0 6.4 0.00 0.00 0.00 89 1013.4
20260905121518 23 96 0.0 1.6 0.00 0.00 0.00 90 1013.3
20260905121021 23 96 0.0 1.6 0.00 0.00 0.00 91 1013.4
20260905120518 23 95 0.0 1.6 0.00 0.00 0.00 92 1013.2
20260905120018 23 95 0.0 1.6 0.00 0.00 0.00 91 1013.3
20260905115521 22 95 0.0 0.0 0.00 0.00 0.00 92 1013.3
20260905115018 22 95 0.0 0.0 0.00 0.00 0.00 93 1013.3
20260905114518 22 96 0.0 0.0 0.00 0.00 0.00 93 1013.3
20260905114018 22 96 0.0 0.0 0.00 0.00 0.00 93 1013.2
20260905113017 22 95 0.0 0.0 0.00 0.00 0.00 93 1013.0
20260905112516 22 96 0.0 0.0 0.00 0.00 0.00 93 1012.9
20260905112017 22 96 0.0 0.0 0.00 0.00 0.00 93 1012.9
20260905111516 22 96 0.0 4.8 0.00 0.00 0.00 93 1012.8
20260905111016 22 95 0.0 6.4 0.00 0.00 0.00 93 1012.7
20260905110515 22 95 0.0 4.8 0.00 0.00 0.00 93 1012.7
20260905110015 22 95 0.0 1.6 0.00 0.00 0.00 93 1012.5
20260905105518 22 96 0.0 0.0 0.00 0.00 0.00 93 1012.4
20260905105014 22 96 0.0 1.6 0.00 0.00 0.00 93 1012.2
20260905104515 22 96 0.0 1.6 0.00 0.00 0.00 93 1012.2
20260905104019 22 96 0.0 1.6 0.00 0.00 0.00 93 1012.2
20260905103015 22 95 0.0 1.6 0.00 0.00 0.00 93 1012.1
20260905102517 22 96 0.0 3.2 0.00 0.00 0.00 93 1012.1
20260905102014 22 96 0.0 3.2 0.00 0.00 0.00 93 1012.2
20260905101514 22 96 0.0 1.6 0.00 0.00 0.00 93 1012.1
20260905101013 22 96 0.0 0.0 0.00 0.00 0.00 92 1012.0
20260905100513 22 95 0.0 0.0 0.00 0.00 0.00 92 1012.0
20260905100013 22 96 0.0 0.0 0.00 0.00 0.00 92 1012.0
20260905095514 22 96 0.0 0.0 0.00 0.00 0.00 92 1012.1
20260905095113 22 96 0.0 0.0 0.00 0.00 0.00 92 1012.0
20260905094512 22 96 0.0 3.2 0.00 0.00 0.00 93 1011.9
20260905094010 22 95 0.0 3.2 0.00 0.00 0.00 93 1012.1
20260905093011 22 96 0.0 1.6 0.00 0.00 0.00 93 1012.0
20260905092511 22 95 0.0 1.6 0.00 0.00 0.00 93 1012.0
20260905092014 22 95 0.0 1.6 0.00 0.00 0.00 93 1012.0
20260905091510 22 95 0.0 1.6 0.00 0.00 0.00 93 1012.1
20260905091009 22 96 0.0 1.6 0.00 0.00 0.00 93 1012.0
20260905090509 22 95 0.0 3.2 0.00 0.00 0.00 93 1012.0
20260905090007 22 96 0.0 3.2 0.00 0.00 0.00 92 1012.2
20260905085508 22 96 0.0 0.0 0.00 0.00 0.00 92 1012.0
20260905085007 22 96 0.0 3.2 0.00 0.00 0.00 92 1012.1
20260905084506 23 96 0.0 3.2 0.00 0.00 0.00 92 1012.2
20260905084007 23 96 0.0 1.6 0.00 0.00 0.00 91 1012.2
20260905083008 23 95 0.0 1.6 0.00 0.00 0.00 91 1012.4
20260905082505 23 96 0.0 1.6 0.00 0.00 0.00 92 1012.5
20260905082005 23 96 0.0 3.2 0.00 0.00 0.00 92 1012.5
20260905081505 23 95 0.0 3.2 0.00 0.00 0.00 92 1012.6
20260905081003 23 96 0.0 1.6 0.00 0.00 0.00 92 1012.6
20260905080505 23 96 0.0 3.2 0.00 0.00 0.00 92 1012.8
20260905080002 23 95 0.0 0.0 0.00 0.00 0.00 91 1012.8
20260905075504 23 95 0.0 1.6 0.00 0.00 0.00 90 1012.8
20260905075001 23 95 0.0 1.6 0.00 0.00 0.00 91 1012.8
20260905074600 23 95 0.0 1.6 0.00 0.00 0.00 91 1012.9
20260905074100 23 96 0.0 0.0 0.00 0.00 0.00 91 1013.0
20260905073700 23 96 0.0 0.0 0.00 0.00 0.00 92 1013.0
20260905073059 23 95 0.0 0.0 0.00 0.00 0.00 92 1013.1
20260905072558 23 96 0.0 0.0 0.00 0.00 0.00 91 1013.0
20260905072057 23 96 0.0 0.0 0.00 0.00 0.00 91 1013.0
20260905071558 23 96 0.0 0.0 0.00 0.00 0.00 91 1013.0
20260905071057 23 95 0.0 0.0 0.00 0.00 0.00 91 1013.0
20260905070601 23 96 0.0 0.0 0.00 0.00 0.00 91 1013.0
20260905070056 23 95 0.0 1.6 0.00 0.00 0.00 91 1013.0
20260905065558 23 95 0.0 1.6 0.00 0.00 0.00 90 1013.1
20260905065055 23 96 0.0 1.6 0.00 0.00 0.00 90 1013.2
20260905064554 24 96 0.0 1.6 0.00 0.00 0.00 89 1013.2
20260905064056 25 95 0.0 1.6 0.00 0.00 0.00 88 1013.3
20260905063654 24 96 0.0 1.6 0.00 0.00 0.00 89 1013.3
20260905063052 24 95 0.0 1.6 0.00 0.00 0.00 89 1013.3
20260905062552 25 96 0.0 1.6 0.00 0.00 0.00 88 1013.3
20260905062051 25 95 0.0 1.6 0.00 0.00 0.00 87 1013.3
20260905061555 25 96 0.0 1.6 0.00 0.00 0.00 88 1013.4
20260905061051 25 96 0.0 1.6 0.00 0.00 0.00 89 1013.5
20260905060550 24 95 0.0 9.7 0.00 0.00 0.00 90 1013.5
20260905060049 24 95 0.0 9.7 0.00 0.00 0.00 90 1013.6
20260905055548 24 95 1.6 4.8 0.00 0.00 0.00 90 1013.7
20260905055049 24 95 0.0 1.6 0.00 0.00 0.00 90 1013.7
20260905054548 24 95 0.0 0.0 0.00 0.00 0.00 89 1013.8
20260905054047 24 96 0.0 0.0 0.00 0.00 0.00 90 1013.9
20260905053647 24 96 0.0 0.0 0.00 0.00 0.00 89 1013.8
20260905053054 25 96 0.0 1.6 0.00 0.00 0.00 89 1013.9